Location: El Frío
(10.0713°N, 67.9111°W)
Time: 19:16:48
(UTC+00:00)

SEDSat Delta rocket - Pass Details

Date: 11 December 2025
Orbit: 529 x 965 km, 31.4° (Epoch: 20 January)

Event Time Altitude Azimuth Distance (km) Brightness Sun altitude
Rises 22:21:23 0° 254° (WSW) 3,149 9.4 -3.1°
Reaches altitude 10° 22:23:49 10° 261° (W) 2,297 7.7 -3.6°
Maximum altitude 22:29:03 44° 333° (NNW) 1,134 4.5 -4.8°
Drops below altitude 10° 22:34:55 10° 44° (NE) 2,567 5.6 -6.1°
Enters shadow 22:36:11 - 47° (NE) 3,003 6.0 -6.4°
